QPF
0.00 0.00 0.00 0.00 0.00 0.00 0.00 0.00 0.00 0.00 0.00 0.00 0.00 0.00 0.00 0.00 0.00 0.00 0.00 0.00 0.00 0.00 0.00 0.00 0.00 0.00 0.00 0.00 0.00 0.00 0.00 0.00 0.00 0.00 0.00 0.00 0.00 0.00 0.00 0.00 0.00 0.00
0.00 0.00 0.00 0.00 0.00 0.00 0.00 0.00 0.00 0.00 0.00 0.00 0.00 0.00 0.00 0.00 0.00 0.00 0.00 0.00 0.00 0.00 0.00 0.00 0.00 0.00 0.00 0.00 0.00 0.00 0.01 0.00 0.00 0.00 0.00 0.01 0.05 0.03 0.03 0.03 0.02 0.02
0.00 0.00 0.00 0.00 0.00 0.00 0.00 0.00 0.00 0.00 0.00 0.00 0.00 0.00 0.00 0.00 0.00 0.00 0.00 0.00 0.00 0.00 0.00 0.00 0.00 0.00 0.00 0.01 0.01 0.02 0.08 0.07 0.07 0.06 0.13 0.04 0.05 0.02 0.01 0.00 0.00 0.01
0.00 0.00 0.00 0.00 0.00 0.00 0.00 0.00 0.00 0.00 0.00 0.00 0.00 0.00 0.00 0.00 0.00 0.00 0.00 0.00 0.00 0.00 0.00 0.00 0.00 0.00 0.00 0.07 0.05 0.09 0.04 0.07 0.03 0.02 0.01 0.01 0.02 0.02 0.02 0.03 0.04 0.03
0.00 0.00 0.00 0.00 0.00 0.00 0.00 0.00 0.00 0.00 0.00 0.00 0.00 0.00 0.00 0.00 0.00 0.00 0.00 0.00 0.00 0.00 0.00 0.00 0.00 0.00 0.00 0.00 0.00 0.01 0.01 0.01 0.03 0.06 0.04 0.04 0.08 0.10 0.07 0.06 0.03 0.06
0.00 0.00 0.00 0.00 0.00 0.00 0.00 0.00 0.00 0.00 0.00 0.00 0.00 0.00 0.00 0.00 0.00 0.00 0.00 0.00 0.00 0.00 0.00 0.00 0.00 0.00 0.00 0.00 0.00 0.00 0.00 0.00 0.01 0.02 0.03 0.02 0.00 0.01 0.03 0.02 0.04 0.01
0.00 0.00 0.00 0.00 0.00 0.00 0.00 0.00 0.00 0.00 0.00 0.00 0.00 0.00 0.00 0.00 0.00 0.00 0.00 0.00 0.00 0.00 0.00 0.00 0.00 0.00 0.00 0.00 0.00 0.00 0.00 0.00 0.00 0.00 0.00 0.00 0.00 0.00 0.00 0.00 0.01 0.01
0.00 0.00 0.00 0.00 0.00 0.00 0.00 0.00 0.00 0.00 0.00 0.00 0.00 0.00 0.00 0.00 0.00 0.00 0.00 0.00 0.00 0.00 0.00 0.00 0.00 0.00 0.00 0.00 0.00 0.00 0.00 0.00 0.00 0.00 0.00 0.00 0.00 0.00 0.00 0.01 0.00 0.00
0.00 0.00 0.00 0.00 0.00 0.00 0.00 0.00 0.00 0.00 0.00 0.00 0.00 0.00 0.00 0.00 0.00 0.00 0.00 0.00 0.00 0.00 0.00 0.00 0.00 0.00 0.00 0.00 0.00 0.00 0.00 0.00 0.00 0.00 0.00 0.00 0.00 0.01 0.01 0.00 0.03 0.00
0.00 0.00 0.00 0.00 0.00 0.00 0.00 0.00 0.00 0.00 0.00 0.00 0.00 0.00 0.00 0.00 0.00 0.00 0.00 0.00 0.00 0.00 0.00 0.00 0.00 0.00 0.00 0.00 0.00 0.00 0.00 0.00 0.00 0.00 0.00 0.00 0.00 0.00 0.00 0.00 0.00 0.00
0.00 0.00 0.00 0.00 0.00 0.00 0.00 0.00 0.00 0.00 0.00 0.00 0.00 0.00 0.00 0.00 0.00 0.00 0.00 0.00 0.00 0.00 0.00 0.00 0.00 0.00 0.00 0.00 0.00 0.00 0.00 0.00 0.00 0.00 0.00 0.00 0.01 0.00 0.00 0.00 0.01 0.01
0.00 0.00 0.00 0.00 0.00 0.00 0.00 0.00 0.00 0.00 0.00 0.00 0.00 0.00 0.00 0.00 0.00 0.00 0.00 0.00 0.00 0.00 0.00 0.00 0.00 0.00 0.00 0.00 0.00 0.00 0.00 0.00 0.00 0.00 0.00 0.00 0.00 0.00 0.00 0.01 0.01 0.01
0.00 0.00 0.00 0.00 0.00 0.00 0.00 0.00 0.00 0.00 0.00 0.00 0.00 0.00 0.00 0.00 0.00 0.00 0.00 0.00 0.00 0.00 0.00 0.00 0.00 0.00 0.00 0.00 0.00 0.00 0.00 0.00 0.00 0.00 0.00 0.00 0.00 0.00 0.00 0.01 0.01 0.01
0.00 0.00 0.00 0.00 0.00 0.00 0.00 0.00 0.00 0.00 0.00 0.00 0.00 0.00 0.00 0.00 0.00 0.00 0.00 0.00 0.00 0.00 0.00 0.00 0.00 0.00 0.00 0.00 0.00 0.00 0.00 0.00 0.00 0.00 0.00 0.00 0.00 0.00 0.00 0.01 0.01 0.01
0.00 0.00 0.00 0.00 0.00 0.00 0.00 0.00 0.00 0.00 0.00 0.00 0.00 0.00 0.00 0.00 0.00 0.00 0.00 0.00 0.00 0.00 0.00 0.00 0.00 0.00 0.00 0.00 0.00 0.00 0.00 0.00 0.00 0.00 0.00 0.00 0.00 0.01 0.01 0.01 0.01 0.01
0.00 0.00 0.00 0.00 0.00 0.00 0.00 0.00 0.00 0.00 0.00 0.00 0.00 0.00 0.00 0.00 0.00 0.00 0.00 0.00 0.00 0.00 0.00 0.00 0.00 0.01 0.01 0.01 0.01 0.01 0.01 0.01 0.01 0.01 0.01 0.02 0.02 0.02 0.02 0.02 0.02 0.02
0.00 0.00 0.00 0.00 0.00 0.00 0.00 0.00 0.00 0.00 0.00 0.00 0.00 0.00 0.00 0.00 0.00 0.00 0.00 0.00 0.00 0.00 0.00 0.00 0.01 0.01 0.01 0.01 0.01 0.01 0.01 0.02 0.02 0.02 0.02 0.02 0.03 0.03 0.03 0.03 0.03 0.02
0.00 0.00 0.00 0.00 0.00 0.00 0.00 0.00 0.00 0.00 0.00 0.00 0.00 0.00 0.00 0.00 0.00 0.00 0.00 0.00 0.00 0.00 0.01 0.01 0.01 0.01 0.02 0.02 0.02 0.02 0.02 0.02 0.02 0.03 0.03 0.03 0.03 0.03 0.03 0.03 0.02 0.02
0.00 0.00 0.00 0.00 0.00 0.00 0.00 0.00 0.00 0.00 0.00 0.00 0.00 0.00 0.00 0.00 0.00 0.00 0.00 0.00 0.00 0.01 0.01 0.01 0.02 0.02 0.02 0.03 0.03 0.03 0.03 0.03 0.03 0.03 0.04 0.04 0.04 0.03 0.03 0.03 0.02 0.02
0.00 0.00 0.00 0.00 0.00 0.00 0.00 0.00 0.00 0.00 0.00 0.00 0.00 0.00 0.00 0.00 0.00 0.00 0.00 0.00 0.00 0.00 0.01 0.02 0.02 0.02 0.02 0.02 0.02 0.03 0.03 0.03 0.03 0.03 0.03 0.03 0.03 0.03 0.03 0.02 0.02 0.02
0.00 0.00 0.00 0.00 0.00 0.00 0.00 0.00 0.00 0.00 0.00 0.00 0.00 0.00 0.00 0.00 0.00 0.00 0.00 0.00 0.00 0.01 0.01 0.02 0.02 0.02 0.02 0.02 0.03 0.02 0.02 0.02 0.02 0.02 0.02 0.03 0.03 0.03 0.02 0.02 0.02 0.02
0.00 0.00 0.00 0.00 0.00 0.00 0.00 0.00 0.00 0.00 0.00 0.00 0.00 0.00 0.00 0.00 0.00 0.00 0.00 0.00 0.00 0.01 0.01 0.01 0.02 0.02 0.02 0.02 0.02 0.02 0.02 0.02 0.02 0.02 0.02 0.02 0.03 0.02 0.02 0.02 0.02 0.02
0.00 0.00 0.00 0.00 0.00 0.00 0.00 0.00 0.00 0.00 0.00 0.00 0.00 0.00 0.00 0.00 0.00 0.00 0.00 0.00 0.00 0.01 0.01 0.01 0.01 0.02 0.02 0.02 0.02 0.02 0.02 0.02 0.02 0.02 0.02 0.02 0.02 0.02 0.02 0.02 0.02 0.02
0.00 0.00 0.00 0.00 0.00 0.00 0.00 0.00 0.00 0.00 0.00 0.00 0.00 0.00 0.00 0.00 0.00 0.00 0.00 0.00 0.00 0.00 0.00 0.01 0.01 0.01 0.02 0.02 0.02 0.02 0.02 0.02 0.02 0.02 0.02 0.02 0.02 0.02 0.02 0.02 0.01 0.01
0.00 0.00 0.00 0.00 0.00 0.00 0.00 0.00 0.00 0.00 0.00 0.00 0.00 0.00 0.00 0.00 0.00 0.00 0.00 0.00 0.00 0.00 0.00 0.01 0.01 0.01 0.01 0.01 0.02 0.02 0.02 0.02 0.02 0.02 0.02 0.02 0.02 0.02 0.02 0.01 0.01 0.01
0.00 0.00 0.00 0.00 0.00 0.00 0.00 0.00 0.00 0.00 0.00 0.00 0.00 0.00 0.00 0.00 0.00 0.00 0.00 0.00 0.00 0.00 0.01 0.01 0.01 0.01 0.01 0.01 0.02 0.01 0.01 0.01 0.02 0.02 0.02 0.02 0.01 0.01 0.01 0.01 0.01 0.00
MSLP
1015.62 1015.82 1015.74 1015.98 1016.14 1016.34 1016.46 1016.66 1016.90 1016.94 1017.02 1017.26 1017.22 1017.34 1017.42 1017.74 1018.06 1018.22 1018.30 1018.34 1018.34 1018.34 1018.42 1018.42 1018.46 1018.42 1018.46 1018.42 1018.42 1018.46 1018.46 1018.54 1018.70 1018.82 1018.94 1019.18 1019.42 1019.50 1019.70 1019.98 1020.18 1020.30
1015.42 1015.62 1015.70 1015.82 1015.98 1016.22 1016.30 1016.46 1016.58 1016.78 1016.94 1017.18 1017.34 1017.46 1017.66 1017.82 1018.10 1018.26 1018.38 1018.46 1018.54 1018.58 1018.66 1018.70 1018.70 1018.66 1018.66 1018.62 1018.62 1018.54 1018.70 1018.74 1018.74 1019.02 1018.90 1019.02 1019.38 1019.54 1019.70 1019.86 1020.02 1020.58
1015.26 1015.50 1015.58 1015.50 1015.50 1015.66 1015.94 1016.30 1016.58 1016.78 1016.98 1017.26 1017.46 1017.62 1017.78 1017.98 1018.10 1018.30 1018.46 1018.58 1018.70 1018.78 1018.86 1018.90 1018.90 1018.90 1018.90 1018.90 1018.86 1018.78 1018.78 1018.86 1018.94 1019.18 1019.10 1019.18 1019.50 1019.46 1019.82 1020.10 1020.42 1020.50
1015.02 1015.14 1015.18 1015.26 1015.38 1015.46 1015.90 1016.14 1016.46 1016.74 1017.06 1017.22 1017.46 1017.74 1017.90 1018.06 1018.18 1018.30 1018.50 1018.70 1018.78 1018.90 1018.98 1019.02 1019.02 1019.06 1019.06 1019.10 1019.10 1019.14 1019.18 1019.18 1019.26 1019.26 1019.42 1019.74 1019.94 1020.10 1020.18 1020.10 1020.22 1020.54
1014.70 1014.98 1015.22 1015.22 1015.42 1015.58 1015.74 1015.86 1016.18 1016.58 1016.90 1017.22 1017.54 1017.74 1017.90 1018.06 1018.22 1018.34 1018.50 1018.66 1018.82 1018.94 1019.06 1019.10 1019.14 1019.14 1019.14 1019.18 1019.22 1019.34 1019.50 1019.54 1019.62 1019.54 1019.62 1019.90 1020.22 1020.42 1020.54 1020.50 1020.58 1020.78
1014.78 1014.90 1015.06 1015.14 1015.30 1015.42 1015.58 1015.66 1016.02 1016.38 1016.82 1017.14 1017.46 1017.74 1017.90 1018.02 1018.14 1018.26 1018.38 1018.54 1018.74 1018.90 1019.02 1019.10 1019.14 1019.22 1019.22 1019.22 1019.34 1019.46 1019.66 1019.78 1019.86 1019.86 1019.90 1020.06 1020.38 1020.58 1020.78 1020.82 1020.74 1020.90
1014.46 1014.78 1014.86 1015.06 1015.26 1015.34 1015.38 1015.66 1015.98 1016.30 1016.66 1017.02 1017.42 1017.62 1017.78 1017.94 1018.02 1018.14 1018.22 1018.38 1018.58 1018.78 1018.94 1019.02 1019.14 1019.22 1019.26 1019.30 1019.42 1019.58 1019.78 1019.94 1020.06 1020.18 1020.26 1020.50 1020.54 1020.66 1020.82 1020.94 1021.02 1021.18
1014.38 1014.62 1014.66 1014.90 1015.02 1015.30 1015.38 1015.58 1015.82 1016.14 1016.54 1016.90 1017.14 1017.50 1017.66 1017.78 1017.90 1018.02 1018.14 1018.30 1018.50 1018.70 1018.90 1019.02 1019.14 1019.22 1019.30 1019.34 1019.50 1019.74 1019.98 1020.14 1020.26 1020.42 1020.62 1020.82 1020.86 1020.86 1020.98 1021.10 1021.22 1021.42
1014.42 1014.50 1014.54 1014.62 1014.86 1015.22 1015.34 1015.54 1015.82 1016.10 1016.42 1016.66 1017.02 1017.34 1017.54 1017.66 1017.78 1017.90 1018.06 1018.26 1018.46 1018.70 1018.90 1019.06 1019.14 1019.26 1019.34 1019.38 1019.58 1019.74 1019.94 1020.22 1020.42 1020.58 1020.70 1020.86 1021.02 1021.22 1021.30 1021.34 1021.46 1021.66
1014.34 1014.42 1014.34 1014.46 1014.66 1015.10 1015.22 1015.54 1015.74 1015.98 1016.22 1016.46 1016.86 1017.18 1017.42 1017.62 1017.74 1017.86 1018.02 1018.22 1018.42 1018.66 1018.86 1019.02 1019.18 1019.30 1019.38 1019.46 1019.54 1019.70 1019.94 1020.22 1020.46 1020.66 1020.82 1020.98 1021.18 1021.42 1021.58 1021.66 1021.78 1022.02
1014.22 1014.34 1014.10 1014.30 1014.54 1015.02 1015.18 1015.46 1015.66 1015.86 1016.10 1016.34 1016.74 1017.10 1017.38 1017.62 1017.82 1017.90 1018.02 1018.18 1018.34 1018.54 1018.78 1018.98 1019.14 1019.30 1019.38 1019.54 1019.70 1019.82 1019.98 1020.22 1020.50 1020.74 1020.98 1021.22 1021.38 1021.54 1021.70 1021.82 1022.02 1022.22
1014.06 1014.14 1013.90 1014.02 1014.42 1014.82 1015.02 1015.30 1015.54 1015.74 1015.98 1016.30 1016.54 1016.94 1017.34 1017.54 1017.70 1017.86 1017.94 1018.10 1018.30 1018.50 1018.70 1018.94 1019.14 1019.30 1019.42 1019.58 1019.78 1019.94 1020.14 1020.38 1020.66 1020.98 1021.26 1021.50 1021.66 1021.82 1021.94 1022.02 1022.10 1022.38
1013.90 1013.86 1013.78 1013.94 1014.30 1014.62 1015.02 1015.22 1015.38 1015.58 1015.82 1016.18 1016.54 1016.86 1017.18 1017.46 1017.70 1017.82 1017.98 1018.10 1018.30 1018.50 1018.70 1018.94 1019.14 1019.34 1019.54 1019.70 1019.86 1020.02 1020.26 1020.50 1020.82 1021.18 1021.50 1021.78 1021.98 1022.14 1022.30 1022.42 1022.54 1022.66
1013.74 1013.86 1013.78 1013.90 1014.26 1014.58 1014.82 1015.06 1015.30 1015.54 1015.78 1016.10 1016.46 1016.78 1017.02 1017.26 1017.54 1017.74 1017.98 1018.18 1018.34 1018.54 1018.78 1018.98 1019.18 1019.42 1019.62 1019.78 1019.90 1020.06 1020.30 1020.62 1020.94 1021.26 1021.66 1022.06 1022.26 1022.50 1022.66 1022.86 1023.02 1023.22
1013.78 1013.98 1013.86 1013.90 1014.14 1014.46 1014.78 1015.02 1015.26 1015.50 1015.74 1016.02 1016.34 1016.66 1016.94 1017.18 1017.46 1017.74 1017.98 1018.26 1018.46 1018.62 1018.86 1019.06 1019.18 1019.38 1019.54 1019.70 1019.94 1020.22 1020.38 1020.58 1020.90 1021.22 1021.58 1021.94 1022.30 1022.62 1022.86 1023.10 1023.34 1023.58
1013.74 1013.86 1013.74 1013.82 1014.06 1014.34 1014.66 1014.98 1015.26 1015.58 1015.82 1016.10 1016.38 1016.70 1016.98 1017.26 1017.50 1017.74 1017.94 1018.14 1018.42 1018.70 1018.86 1019.06 1019.26 1019.42 1019.58 1019.74 1019.90 1020.10 1020.42 1020.70 1021.02 1021.34 1021.58 1021.82 1022.14 1022.62 1023.02 1023.34 1023.58 1023.82
1013.50 1013.54 1013.62 1013.66 1013.94 1014.34 1014.78 1015.02 1015.30 1015.62 1015.94 1016.22 1016.54 1016.82 1017.02 1017.26 1017.46 1017.70 1017.94 1018.10 1018.34 1018.58 1018.82 1019.06 1019.26 1019.46 1019.62 1019.70 1019.90 1020.18 1020.42 1020.70 1020.98 1021.42 1021.70 1021.94 1022.22 1022.50 1022.98 1023.46 1023.82 1024.06
1013.06 1013.34 1013.50 1013.70 1014.06 1014.38 1014.78 1015.06 1015.34 1015.62 1015.86 1016.18 1016.54 1016.82 1017.06 1017.26 1017.46 1017.62 1017.86 1018.14 1018.38 1018.62 1018.82 1019.02 1019.26 1019.46 1019.62 1019.70 1019.86 1020.14 1020.46 1020.66 1021.02 1021.34 1021.74 1022.06 1022.38 1022.70 1023.10 1023.46 1023.82 1024.18
1012.86 1013.14 1013.42 1013.78 1014.10 1014.46 1014.78 1015.06 1015.22 1015.46 1015.74 1016.06 1016.34 1016.62 1016.94 1017.18 1017.38 1017.62 1017.86 1018.10 1018.30 1018.54 1018.82 1019.02 1019.26 1019.38 1019.50 1019.66 1019.78 1020.06 1020.42 1020.70 1020.98 1021.30 1021.62 1022.10 1022.46 1022.78 1023.14 1023.46 1023.78 1024.14
1012.90 1013.22 1013.50 1013.86 1014.22 1014.50 1014.78 1014.98 1015.14 1015.26 1015.50 1015.82 1016.22 1016.62 1016.86 1017.10 1017.34 1017.50 1017.78 1018.02 1018.26 1018.50 1018.78 1019.06 1019.26 1019.34 1019.42 1019.58 1019.82 1020.06 1020.30 1020.62 1020.94 1021.22 1021.62 1022.02 1022.42 1022.78 1023.14 1023.50 1023.74 1023.98
1012.98 1013.26 1013.54 1013.98 1014.30 1014.54 1014.74 1014.94 1015.10 1015.26 1015.58 1015.86 1016.14 1016.38 1016.62 1016.86 1017.10 1017.42 1017.74 1018.02 1018.34 1018.62 1018.90 1019.14 1019.22 1019.26 1019.38 1019.58 1019.78 1020.06 1020.38 1020.70 1021.02 1021.30 1021.70 1022.10 1022.46 1022.82 1023.10 1023.42 1023.74 1023.98
1013.02 1013.30 1013.62 1014.02 1014.26 1014.50 1014.66 1014.86 1015.06 1015.18 1015.46 1015.82 1016.18 1016.42 1016.62 1016.82 1017.14 1017.38 1017.66 1017.94 1018.22 1018.46 1018.74 1019.02 1019.14 1019.14 1019.26 1019.46 1019.74 1020.02 1020.42 1020.78 1021.02 1021.30 1021.70 1022.14 1022.54 1022.90 1023.18 1023.42 1023.66 1023.90
1013.14 1013.30 1013.58 1013.90 1014.18 1014.38 1014.58 1014.78 1014.98 1015.18 1015.42 1015.74 1016.14 1016.34 1016.54 1016.74 1016.94 1017.18 1017.50 1017.86 1018.18 1018.42 1018.58 1018.82 1018.98 1018.98 1019.10 1019.30 1019.58 1019.94 1020.42 1020.78 1021.02 1021.38 1021.74 1022.18 1022.58 1022.94 1023.22 1023.50 1023.70 1023.94
1013.02 1013.22 1013.42 1013.78 1014.02 1014.14 1014.34 1014.62 1014.86 1015.02 1015.22 1015.50 1015.78 1016.10 1016.42 1016.54 1016.82 1017.22 1017.54 1017.74 1017.94 1018.18 1018.30 1018.54 1018.74 1018.82 1018.94 1019.14 1019.42 1019.86 1020.22 1020.50 1020.86 1021.26 1021.74 1022.22 1022.74 1023.14 1023.42 1023.62 1023.82 1023.94
1012.86 1012.98 1013.18 1013.46 1013.66 1013.82 1014.02 1014.30 1014.62 1014.82 1015.10 1015.46 1015.70 1015.94 1016.18 1016.46 1016.82 1017.14 1017.50 1017.74 1017.90 1018.06 1018.26 1018.38 1018.50 1018.66 1018.78 1018.94 1019.30 1019.74 1020.10 1020.42 1020.70 1021.14 1021.62 1022.30 1022.74 1023.22 1023.58 1023.70 1023.94 1024.06
1012.98 1013.02 1013.10 1013.22 1013.42 1013.66 1013.82 1014.02 1014.46 1014.86 1015.18 1015.46 1015.70 1015.94 1016.22 1016.50 1016.78 1017.06 1017.38 1017.66 1017.86 1018.06 1018.26 1018.30 1018.42 1018.54 1018.62 1018.78 1019.14 1019.54 1019.90 1020.18 1020.54 1020.98 1021.42 1022.06 1022.58 1022.94 1023.38 1023.74 1023.86 1024.02
Thickness
5547 5544 5541 5538 5533 5531 5527 5523 5520 5517 5515 5512 5509 5508 5504 5501 5497 5494 5491 5489 5487 5485 5482 5481 5479 5478 5476 5475 5473 5472 5470 5468 5466 5463 5461 5460 5456 5455 5454 5451 5450 5449
5544 5540 5537 5534 5530 5527 5524 5520 5516 5513 5509 5506 5503 5501 5498 5495 5492 5488 5485 5482 5479 5477 5475 5473 5471 5470 5468 5467 5466 5464 5463 5461 5459 5457 5455 5454 5451 5449 5448 5445 5443 5442
5540 5535 5533 5531 5528 5524 5520 5516 5512 5508 5504 5500 5497 5495 5491 5489 5486 5482 5479 5476 5473 5471 5468 5466 5464 5462 5460 5459 5458 5457 5455 5454 5452 5450 5448 5446 5445 5443 5441 5439 5437 5436
5537 5533 5530 5527 5525 5521 5516 5512 5508 5504 5499 5495 5492 5488 5485 5482 5479 5476 5473 5469 5467 5464 5461 5459 5457 5455 5453 5451 5450 5448 5447 5445 5443 5442 5439 5437 5435 5433 5432 5432 5431 5429
5534 5529 5525 5523 5520 5516 5512 5509 5504 5499 5494 5490 5486 5482 5479 5477 5473 5470 5467 5463 5460 5457 5454 5453 5450 5449 5447 5445 5443 5440 5438 5436 5434 5433 5431 5428 5426 5424 5422 5423 5422 5420
5530 5525 5521 5518 5515 5511 5508 5505 5500 5494 5490 5485 5481 5476 5473 5471 5468 5465 5462 5458 5454 5451 5448 5446 5444 5442 5440 5439 5436 5433 5430 5427 5425 5424 5422 5419 5417 5415 5413 5413 5413 5412
5526 5521 5517 5513 5510 5507 5503 5499 5495 5490 5485 5480 5475 5471 5468 5465 5462 5459 5457 5453 5449 5446 5442 5440 5437 5435 5433 5431 5428 5426 5422 5419 5416 5414 5412 5410 5408 5407 5405 5404 5403 5402
5521 5517 5513 5509 5505 5502 5498 5494 5490 5484 5480 5475 5470 5467 5462 5460 5457 5454 5451 5447 5444 5440 5437 5434 5431 5429 5426 5424 5420 5417 5413 5411 5407 5405 5402 5400 5399 5398 5396 5395 5394 5393
5515 5511 5509 5504 5500 5496 5492 5488 5484 5479 5475 5471 5466 5461 5458 5454 5452 5449 5445 5442 5437 5434 5431 5428 5425 5422 5420 5416 5414 5410 5405 5402 5399 5396 5394 5392 5390 5388 5387 5386 5385 5384
5509 5506 5504 5500 5495 5491 5487 5482 5478 5475 5470 5466 5461 5456 5452 5449 5445 5442 5438 5435 5431 5428 5424 5421 5418 5416 5412 5409 5406 5402 5398 5394 5390 5387 5385 5384 5382 5379 5378 5377 5376 5375
5504 5501 5498 5495 5490 5485 5481 5477 5473 5469 5465 5461 5456 5451 5447 5443 5439 5435 5432 5429 5425 5422 5418 5415 5411 5408 5405 5401 5398 5395 5391 5386 5383 5379 5377 5374 5372 5371 5370 5368 5367 5365
5498 5496 5493 5489 5485 5479 5475 5471 5467 5464 5460 5455 5451 5445 5440 5436 5432 5429 5426 5423 5419 5415 5412 5408 5404 5400 5397 5393 5389 5386 5383 5379 5375 5371 5368 5366 5364 5362 5361 5360 5359 5358
5493 5490 5488 5484 5478 5473 5469 5465 5462 5458 5454 5450 5444 5439 5434 5430 5426 5423 5419 5416 5413 5408 5405 5401 5397 5392 5389 5386 5382 5378 5375 5371 5367 5364 5360 5357 5355 5353 5352 5350 5350 5349
5487 5483 5481 5478 5472 5468 5464 5460 5456 5452 5448 5443 5438 5433 5428 5424 5420 5416 5413 5409 5405 5401 5398 5393 5389 5385 5381 5378 5375 5371 5368 5364 5360 5357 5353 5350 5347 5345 5344 5342 5340 5339
5480 5476 5474 5471 5466 5462 5458 5454 5450 5445 5441 5436 5431 5427 5422 5418 5414 5410 5406 5402 5398 5394 5390 5386 5382 5379 5375 5371 5368 5364 5361 5358 5354 5351 5347 5344 5341 5338 5335 5334 5332 5330
5473 5470 5468 5465 5461 5457 5452 5447 5443 5438 5433 5428 5424 5419 5415 5411 5407 5403 5399 5395 5391 5387 5383 5379 5375 5372 5368 5365 5362 5358 5354 5351 5348 5344 5342 5339 5336 5332 5328 5325 5324 5322
5468 5465 5462 5459 5455 5450 5444 5440 5435 5430 5426 5421 5416 5411 5407 5403 5400 5396 5392 5388 5384 5380 5376 5371 5368 5365 5361 5358 5355 5352 5349 5346 5343 5339 5336 5333 5330 5326 5322 5319 5316 5314
5464 5460 5456 5452 5447 5442 5437 5432 5427 5423 5419 5414 5409 5404 5400 5397 5393 5389 5385 5380 5376 5372 5368 5364 5361 5358 5355 5352 5349 5346 5343 5340 5337 5333 5330 5326 5323 5320 5316 5313 5310 5307
5458 5454 5449 5444 5439 5434 5430 5425 5421 5417 5413 5408 5404 5399 5394 5390 5386 5382 5377 5373 5369 5365 5361 5357 5354 5351 5348 5346 5343 5340 5338 5335 5331 5328 5325 5320 5317 5313 5310 5307 5304 5302
5451 5446 5441 5436 5431 5427 5422 5418 5414 5411 5407 5402 5397 5391 5387 5383 5379 5375 5371 5366 5363 5359 5355 5350 5347 5344 5342 5340 5337 5335 5332 5329 5326 5323 5319 5315 5311 5308 5305 5301 5299 5297
5444 5440 5435 5429 5424 5420 5415 5411 5407 5403 5399 5394 5389 5385 5381 5377 5373 5369 5364 5360 5356 5352 5348 5343 5340 5338 5336 5333 5332 5330 5326 5323 5321 5317 5314 5309 5306 5303 5299 5297 5294 5292
5436 5432 5427 5422 5417 5413 5409 5404 5399 5395 5391 5386 5382 5378 5374 5370 5367 5363 5358 5354 5349 5346 5341 5338 5335 5333 5331 5328 5326 5324 5321 5318 5315 5312 5308 5305 5301 5297 5295 5292 5289 5287
5428 5424 5420 5415 5410 5406 5402 5397 5392 5389 5385 5380 5375 5371 5367 5364 5360 5356 5352 5348 5343 5339 5336 5332 5330 5327 5326 5324 5322 5319 5316 5313 5310 5308 5303 5300 5296 5292 5289 5287 5285 5283
5421 5417 5413 5408 5403 5400 5395 5391 5386 5382 5378 5373 5369 5365 5361 5358 5354 5349 5345 5341 5337 5334 5331 5328 5325 5323 5321 5320 5317 5314 5312 5309 5306 5303 5299 5295 5291 5287 5284 5282 5279 5278
5413 5410 5406 5402 5397 5394 5390 5385 5380 5375 5371 5366 5363 5359 5355 5351 5347 5342 5337 5334 5330 5327 5325 5323 5321 5319 5316 5315 5312 5309 5307 5305 5302 5299 5294 5290 5286 5282 5279 5276 5274 5273
5405 5401 5399 5395 5391 5388 5384 5379 5374 5368 5364 5360 5355 5352 5348 5344 5340 5335 5330 5326 5323 5321 5318 5317 5316 5314 5312 5311 5308 5305 5303 5300 5298 5295 5291 5286 5283 5278 5275 5272 5270 5268